Vorticity
6 5 9 12 11 7 6 8 10 14 13 10 7 5 7 10 11 11 9 6 1 11
12 10 6 6 8 11 13 11 12 8 1 7 14 14 15 5 6 7 11 10 16 9
10 10 11 14 12 4 2 4 4 10 21 24 20 11 17 17 13 7 4 8 10 10
6 7 19 2 2 3 11 7 33 37 26 23 28 33 25 15 20 18 14 10 5 9
15 15 5 10 20 16 8 25 24 22 6 6 30 31 15 26 16 14 11 6 12 7
8 4 17 15 11 11 22 26 13 24 24 32 32 29 7 31 23 16 16 18 12 15
18 22 6 4 4 15 12 19 20 28 37 24 23 37 18 27 31 10 21 16 18 14
9 11 10 4 10 2 15 10 19 29 35 21 39 12 41 26 30 28 18 19 15 14
-1 10 3 9 11 14 6 13 27 -5 35 29 24 19 7 11 14 24 11 13 16 16
6 7 10 6 9 4 17 21 12 31 9 30 18 20 23 29 10 18 19 18 15 12
8 16 3 12 13 5 14 15 15 15 16 29 28 33 23 9 27 14 8 31 -6 7
15 8 15 10 8 15 15 4 -1 11 8 15 21 20 19 10 25 3 8 8 8 7
5 14 12 11 5 8 7 12 15 16 19 12 14 11 17 21 19 -2 12 18 15 17
12 8 6 6 7 8 8 10 9 10 9 8 10 6 3 7 9 8 9 10 10 7
Height
5728 5727 5725 5722 5720 5717 5714 5711 5710 5707 5703 5701 5700 5698 5697 5698 5701 5703 5704 5705 5708 5710
5718 5716 5714 5711 5707 5704 5700 5696 5693 5690 5687 5683 5680 5679 5678 5680 5683 5686 5687 5690 5691 5694
5707 5704 5701 5698 5695 5691 5686 5680 5674 5668 5664 5661 5659 5657 5657 5659 5662 5666 5670 5673 5676 5680
5696 5693 5690 5687 5683 5678 5670 5661 5651 5643 5638 5635 5632 5633 5635 5638 5641 5646 5653 5656 5661 5663
5686 5684 5681 5677 5672 5665 5654 5642 5634 5628 5622 5617 5614 5615 5615 5618 5621 5627 5634 5640 5644 5648
5678 5675 5672 5668 5661 5651 5641 5630 5620 5613 5606 5599 5596 5597 5600 5602 5604 5610 5617 5625 5631 5635
5670 5666 5662 5657 5650 5642 5630 5620 5609 5601 5591 5587 5585 5585 5586 5590 5594 5596 5603 5611 5617 5622
5661 5657 5653 5648 5642 5634 5623 5612 5604 5594 5585 5581 5577 5578 5581 5583 5588 5590 5594 5601 5607 5611
5653 5648 5646 5641 5635 5627 5619 5609 5600 5592 5583 5577 5574 5574 5575 5579 5581 5585 5588 5592 5598 5603
5646 5643 5639 5634 5628 5621 5614 5606 5598 5588 5584 5578 5574 5573 5573 5574 5575 5581 5584 5587 5591 5595
5640 5637 5633 5628 5623 5617 5611 5604 5597 5590 5584 5578 5574 5573 5571 5573 5575 5577 5581 5583 5586 5588
5634 5632 5627 5623 5618 5613 5608 5602 5597 5591 5586 5581 5577 5575 5574 5574 5576 5577 5578 5580 5580 5581
5630 5627 5623 5619 5615 5611 5606 5600 5595 5590 5586 5581 5579 5577 5576 5575 5575 5575 5576 5576 5576 5576
5626 5623 5620 5616 5612 5607 5603 5598 5594 5590 5586 5583 5581 5579 5577 5575 5575 5574 5574 5572 5571 5570